Location: �clusier
(49.9361°N, 2.7869°E)
Time: 11:57:28
(UTC+00:00)

Cosmos 1452 Rocket - Pass Details

Date: 01 November 2021
Orbit: 767 x 775 km, 74.1° (Epoch: 26 November)

Event Time Altitude Azimuth Distance (km) Brightness Sun altitude
Exits shadow 04:13:06 - 341° (NNW) 2,608 6.1 -23.8°
Reaches altitude 10° 04:13:50 10° 343° (NNW) 2,335 5.9 -23.6°
Maximum altitude 04:19:02 54° 61° (ENE) 943 4.2 -22.8°
Drops below altitude 10° 04:24:11 10° 138° (SE) 2,317 6.5 -22.0°
Sets 04:26:36 0° 143° (SE) 3,239 7.2 -21.6°
